TimeEST,TemperatureF,Dew PointF,Humidity,Sea Level PressureIn,VisibilityMPH,Wind Direction,Wind SpeedMPH,Gust SpeedMPH,PrecipitationIn,Events,Conditions,WindDirDegrees,DateUTC
12:53 AM,21.0,15.1,78,30.17,10.0,Calm,Calm,-,N/A,,Clear,0,2013-01-03 05:53:00
1:53 AM,19.9,15.1,81,30.17,10.0,Calm,Calm,-,N/A,,Clear,0,2013-01-03 06:53:00
2:53 AM,19.0,14.0,81,30.18,10.0,Calm,Calm,-,N/A,,Clear,0,2013-01-03 07:53:00
3:53 AM,18.0,12.9,81,30.17,10.0,Calm,Calm,-,N/A,,Clear,0,2013-01-03 08:53:00
4:53 AM,19.9,12.0,71,30.17,10.0,Calm,Calm,-,N/A,,Clear,0,2013-01-03 09:53:00
5:53 AM,17.1,10.9,77,30.17,10.0,North,3.5,-,N/A,,Clear,350,2013-01-03 10:53:00
6:53 AM,12.0,3.9,70,30.18,10.0,East,6.9,-,N/A,,Clear,80,2013-01-03 11:53:00
7:53 AM,9.0,1.9,73,30.19,10.0,ENE,4.6,-,N/A,,Clear,60,2013-01-03 12:53:00
8:53 AM,10.0,1.0,67,30.19,10.0,Calm,Calm,-,N/A,,Clear,0,2013-01-03 13:53:00
9:53 AM,12.0,1.9,64,30.19,10.0,Calm,Calm,-,N/A,,Clear,0,2013-01-03 14:53:00
10:53 AM,15.1,5.0,64,30.18,10.0,Calm,Calm,-,N/A,,Clear,0,2013-01-03 15:53:00
11:53 AM,21.9,8.1,55,30.13,10.0,Calm,Calm,-,N/A,,Clear,0,2013-01-03 16:53:00
12:53 PM,28.0,12.0,51,30.08,10.0,Variable,5.8,-,N/A,,Clear,0,2013-01-03 17:53:00
1:53 PM,32.0,12.0,44,30.06,10.0,Variable,5.8,-,N/A,,Clear,0,2013-01-03 18:53:00
2:53 PM,30.9,12.9,47,30.05,10.0,Variable,3.5,-,N/A,,Clear,0,2013-01-03 19:53:00
3:53 PM,32.0,12.9,45,30.06,10.0,SW,3.5,-,N/A,,Scattered Clouds,220,2013-01-03 20:53:00
4:53 PM,28.9,12.0,49,30.06,10.0,SSW,3.5,-,N/A,,Clear,210,2013-01-03 21:53:00
5:53 PM,27.0,12.9,56,30.07,9.0,SW,3.5,-,N/A,,Mostly Cloudy,230,2013-01-03 22:53:00
6:53 PM,28.0,12.9,53,30.07,10.0,SW,3.5,-,N/A,,Overcast,220,2013-01-03 23:53:00
7:53 PM,28.9,14.0,54,30.08,10.0,Calm,Calm,-,N/A,,Overcast,0,2013-01-04 00:53:00
8:53 PM,28.0,14.0,56,30.07,10.0,WSW,3.5,-,N/A,,Overcast,240,2013-01-04 01:53:00
9:53 PM,28.9,15.1,56,30.07,10.0,SSW,3.5,-,N/A,,Overcast,210,2013-01-04 02:53:00
10:53 PM,28.9,16.0,58,30.06,10.0,SW,4.6,-,N/A,,Overcast,220,2013-01-04 03:53:00
11:53 PM,30.0,16.0,56,30.05,10.0,SW,4.6,-,N/A,,Overcast,230,2013-01-04 04:53:00